Theta_e
328 336 338 343 348 346 340 336 329 329 326 323 321 322 318 318 321 326 320 321 318 313 312 310 311 316 316 314 314 314 314 315 316 317 314 314 314 315 316 316 315 314 315 315 315 314 313 313 313
327 336 337 342 344 341 339 333 328 324 321 319 319 320 319 316 318 317 318 317 314 311 313 313 309 311 306 309 313 309 314 314 313 312 313 313 313 315 315 313 312 313 314 312 312 311 312 312 312
331 336 334 342 338 339 337 329 324 320 319 320 319 318 319 316 318 318 318 314 311 310 311 308 302 302 302 303 304 312 312 312 310 309 312 311 312 314 312 311 312 312 312 311 311 310 309 310 310
334 337 333 335 338 333 331 326 323 320 318 318 319 315 314 318 317 316 314 310 309 312 313 304 301 301 301 302 304 311 308 303 300 300 301 305 312 312 311 310 310 310 310 310 310 309 302 303 305
335 334 336 337 335 331 327 325 322 321 319 319 318 316 314 314 314 314 310 309 309 314 312 303 301 301 301 302 306 307 301 299 299 300 299 301 304 302 303 304 304 302 300 303 303 300 299 300 300
333 332 335 336 333 329 325 324 322 321 319 318 318 317 314 312 313 311 308 308 310 310 314 308 301 300 301 302 302 302 300 299 299 299 299 299 299 299 300 300 299 299 299 299 299 299 299 299 299
333 336 335 331 332 329 325 323 322 321 320 318 317 318 312 311 312 309 307 307 308 308 311 307 304 301 301 301 301 300 299 298 300 299 299 299 299 299 299 299 299 299 299 299 299 299 299 299 300
329 330 327 328 330 330 324 322 321 321 317 316 316 317 312 311 311 308 307 307 306 305 307 306 306 303 304 304 302 300 299 299 300 299 299 300 300 299 299 299 299 299 299 299 299 299 300 301 301
327 334 329 328 327 328 323 323 319 318 317 317 315 315 314 312 311 308 306 306 304 304 304 304 302 303 305 306 302 300 299 300 300 300 299 300 302 299 299 299 299 299 299 299 299 300 300 300 300
325 333 330 326 325 326 323 323 319 318 318 316 314 312 313 312 310 308 306 305 305 304 304 303 302 302 302 305 301 300 299 300 300 300 299 299 300 300 299 299 299 299 299 299 300 300 300 300 300
322 327 324 323 322 322 322 320 320 318 319 318 316 312 312 311 309 308 307 306 306 305 304 303 301 301 302 303 301 300 300 300 300 300 299 299 299 300 299 299 299 299 299 299 299 300 300 300 300
322 320 319 320 318 318 319 319 318 318 318 318 317 315 313 311 310 309 308 307 306 306 305 304 301 300 301 302 302 302 300 300 300 300 299 299 299 299 299 299 299 299 299 299 299 300 300 300 301
320 319 318 317 317 317 317 317 318 318 318 317 315 314 312 311 310 310 309 308 307 306 305 304 302 301 301 302 302 301 300 300 300 300 299 299 299 299 299 299 299 299 298 299 299 299 300 300 301
318 318 317 317 317 317 316 317 316 317 317 316 314 314 312 311 311 310 309 308 307 306 305 304 303 300 301 302 302 301 299 300 300 300 299 299 299 299 299 299 299 299 299 299 299 299 300 300 301
318 318 317 317 317 317 315 315 316 316 316 316 314 313 313 312 311 311 310 308 307 306 305 305 304 302 301 301 301 301 300 299 299 299 299 299 299 299 298 298 299 298 298 299 299 299 299 300 300
319 320 322 319 317 316 315 318 317 317 315 316 314 313 313 312 312 311 310 308 307 306 305 305 304 303 302 301 301 301 301 300 299 299 299 299 299 299 298 298 299 298 298 298 298 299 299 299 300
321 319 319 320 317 317 315 318 317 316 315 315 315 314 314 313 312 311 310 309 307 306 305 305 304 303 302 301 301 301 301 301 300 299 299 299 299 299 298 298 298 298 298 298 298 298 298 299 299
318 317 317 318 317 316 315 315 316 317 315 315 315 315 314 313 312 311 310 309 307 306 306 305 305 304 302 302 301 301 301 301 301 300 299 299 299 299 299 298 298 298 298 298 299 298 298 299 299
317 316 317 319 315 315 315 315 316 318 315 315 315 315 315 314 313 312 310 309 308 306 306 305 305 304 303 302 302 302 301 301 301 301 300 299 299 299 298 298 298 298 298 298 298 298 298 298 299
318 317 318 317 316 314 314 315 316 318 318 316 316 315 316 315 314 312 311 310 308 307 306 305 305 304 304 303 303 302 302 301 301 301 301 300 299 299 299 298 298 298 298 298 298 298 298 298 299
318 318 315 315 315 316 316 318 317 316 315 315 316 317 316 316 314 313 312 310 309 308 306 306 305 305 305 304 303 303 302 302 302 302 301 301 301 299 298 298 298 298 298 298 298 298 298 297 297
318 314 315 316 315 317 317 317 320 317 315 314 315 315 316 316 315 314 312 311 310 309 308 307 306 306 305 305 304 304 303 303 302 302 301 300 300 300 299 298 298 298 298 298 298 298 298 297 297
317 314 314 316 316 316 320 319 318 317 316 316 316 315 314 315 315 314 313 312 311 310 309 308 307 307 306 305 305 304 304 304 303 302 301 301 301 300 300 299 298 298 298 298 298 298 298 298 298
313 314 315 317 317 323 320 316 320 319 318 316 315 315 316 315 314 314 314 313 312 311 311 310 309 308 307 306 306 305 305 304 304 303 303 302 302 301 300 300 300 298 298 298 298 298 297 297 297
315 317 324 326 326 324 318 317 317 318 317 317 317 315 315 314 314 313 313 313 312 312 312 311 310 310 308 307 306 306 305 305 304 303 303 303 302 302 302 300 300 300 298 298 298 297 297 297 297
315 316 319 321 321 319 317 319 321 316 316 315 315 316 315 314 314 314 314 314 314 313 312 312 311 311 309 308 307 306 306 306 305 304 303 303 303 302 302 301 300 300 299 298 297 297 297 297 297
315 318 315 317 319 319 321 321 318 317 316 316 316 315 315 315 315 315 314 314 314 313 313 313 312 312 311 310 308 307 307 306 306 305 304 303 303 302 302 302 302 300 300 299 298 297 297 297 297
312 312 318 318 325 322 322 322 320 318 317 316 316 315 314 315 316 315 315 314 314 314 313 313 312 311 311 310 309 308 307 306 306 305 305 304 303 302 302 302 302 301 300 299 299 298 297 297 297
312 314 314 315 317 321 321 322 317 317 316 315 316 317 316 315 316 316 316 315 315 314 314 313 312 310 309 309 309 308 308 307 306 305 305 304 304 303 302 302 302 302 301 300 299 299 298 297 297
311 313 315 319 322 316 316 317 316 314 315 315 316 317 317 316 316 316 316 315 315 314 314 313 312 310 309 309 309 308 307 307 306 305 305 305 304 304 303 302 302 301 301 301 300 299 299 298 297
Wind_Speed
6 12 11 8 2 2 7 4 8 5 5 8 7 12 12 14 6 4 16 10 11 8 4 3 8 8 8 8 9 8 11 12 12 12 11 11 12 13 13 12 14 14 15 14 15 15 16 17 17
8 6 9 6 3 4 2 6 12 10 11 6 7 5 9 6 7 14 15 12 9 8 4 0 5 5 5 7 9 9 12 8 9 9 10 12 12 13 12 13 13 13 14 14 14 15 16 16 15
8 7 5 3 3 5 3 13 10 11 6 3 5 10 7 5 9 8 8 14 8 7 7 2 2 3 4 5 6 10 8 9 9 10 10 11 13 13 12 12 13 13 14 14 15 15 15 15 16
6 5 8 3 7 7 10 11 14 10 6 3 5 10 9 8 6 8 15 12 7 7 5 2 2 2 2 4 6 6 8 9 10 11 11 11 10 12 11 13 13 13 13 13 14 14 16 16 16
6 6 4 6 11 7 11 14 9 7 6 6 2 6 9 10 9 10 14 10 9 8 4 4 2 2 3 4 4 5 7 8 9 10 11 10 10 11 12 12 12 13 14 14 14 15 16 17 17
5 5 5 2 11 8 10 8 5 8 6 5 4 11 7 7 11 13 12 10 9 10 5 3 2 2 2 2 3 4 6 8 9 10 10 9 10 11 12 13 13 14 15 15 16 16 17 17 18
6 4 5 4 10 5 8 5 2 5 5 7 3 4 11 11 13 13 12 10 9 8 10 2 1 2 1 1 3 5 6 7 8 9 10 9 9 10 12 13 13 14 14 15 15 16 15 17 18
5 3 2 6 5 5 8 5 4 2 6 6 3 2 9 16 16 14 13 11 10 8 7 6 5 2 3 2 3 5 4 5 6 8 9 9 10 12 12 12 12 12 13 13 14 15 17 17 19
3 3 2 6 3 6 8 4 2 2 5 4 3 3 9 16 18 17 15 12 11 9 9 7 5 5 5 6 4 4 3 3 3 4 7 9 7 8 9 9 10 10 10 11 12 13 15 15 15
3 3 6 8 10 5 6 4 11 3 7 7 7 7 13 14 18 18 17 15 12 10 9 8 7 6 6 7 5 4 4 3 4 5 5 3 4 4 6 7 8 9 11 12 12 13 14 16 17
5 4 3 7 7 5 3 2 2 4 5 11 17 16 18 17 18 17 14 13 11 9 9 9 9 8 6 6 5 4 3 2 2 2 3 3 3 5 7 7 8 8 9 10 11 12 13 15 15
2 4 6 2 2 1 1 2 2 10 5 2 5 18 19 19 19 18 16 15 14 13 12 11 9 8 7 7 5 5 5 3 3 1 2 2 2 2 3 5 6 7 8 9 9 11 12 12 12
4 4 2 3 1 2 4 6 8 9 9 9 7 14 18 17 18 17 16 15 15 15 15 13 11 9 9 8 7 7 6 5 5 4 2 3 2 2 3 5 6 6 7 8 9 10 10 11 11
2 1 4 4 4 4 4 9 2 2 14 13 13 16 15 18 19 17 19 18 18 16 16 14 13 12 11 10 10 9 8 7 6 6 5 4 4 3 3 4 5 6 7 7 8 9 9 9 9
2 4 9 9 8 2 2 5 9 11 12 19 14 16 17 18 18 21 21 20 20 18 17 16 14 13 13 12 13 10 10 9 8 8 7 7 6 5 5 4 5 5 6 6 7 7 7 7 8
5 5 4 6 8 3 0 5 14 14 14 17 17 17 19 19 21 21 21 21 20 19 19 19 18 16 14 14 14 13 12 11 10 10 9 9 8 7 6 6 6 6 6 6 6 7 7 7 8
5 3 5 6 7 3 5 5 10 13 14 16 18 19 21 20 20 21 23 24 23 22 21 22 20 19 17 16 16 15 15 13 12 12 11 11 10 9 8 8 7 7 7 6 6 7 8 8 8
7 6 8 6 5 6 8 11 13 19 21 21 19 20 21 22 23 23 25 24 23 23 22 21 22 20 19 19 18 18 17 16 15 14 13 13 12 11 10 10 9 8 8 7 7 8 8 9 10
6 7 9 5 4 3 7 9 9 13 27 22 21 20 22 21 19 22 24 25 24 24 25 25 25 24 21 22 22 21 20 18 17 16 16 15 15 14 13 12 12 11 9 9 8 8 8 8 10
6 8 7 4 3 2 9 15 12 4 4 27 25 22 19 19 19 21 23 26 27 27 27 27 28 27 26 25 23 22 21 20 19 18 18 17 16 16 16 14 14 13 12 11 10 9 9 8 9
7 4 5 5 10 7 8 5 4 3 1 5 7 20 20 18 19 20 23 25 26 27 27 28 27 29 29 28 27 25 23 22 23 22 20 18 17 17 17 17 16 15 14 13 12 12 11 10 8
5 6 5 8 8 3 5 4 3 5 6 5 5 10 15 17 17 19 22 25 26 24 24 27 28 28 30 30 31 32 30 29 26 24 22 22 21 20 19 18 18 17 17 16 14 13 12 11 9
3 3 4 5 6 6 2 0 1 6 6 6 5 8 10 15 15 18 19 23 24 22 23 24 27 30 30 32 34 33 34 31 29 26 25 24 22 21 20 20 19 19 18 18 16 15 15 13 13
7 5 7 4 3 1 3 4 1 2 4 6 8 3 5 9 14 18 18 20 22 20 21 23 26 30 32 33 35 36 35 34 33 30 29 26 24 22 22 21 20 20 20 19 18 17 18 17 16
5 5 1 1 1 1 3 2 6 6 6 4 4 7 5 6 11 12 14 16 15 20 22 24 28 31 32 35 37 38 38 37 36 34 32 31 28 27 24 23 22 21 21 21 20 20 20 19 18
5 4 2 1 3 4 3 3 4 5 6 3 4 5 6 8 8 9 7 6 8 14 19 23 27 31 32 34 37 39 39 40 39 38 36 36 34 31 26 24 23 23 21 22 22 23 22 22 21
2 2 2 2 1 2 4 5 6 3 5 2 2 7 11 11 10 9 8 9 11 12 15 18 22 24 27 29 32 36 38 40 39 38 38 39 38 34 32 28 25 24 23 23 23 23 23 23 22
1 3 1 2 2 3 5 2 3 2 5 5 2 6 11 12 13 14 13 11 13 21 22 22 21 20 22 24 27 30 34 37 38 37 38 38 38 37 35 33 30 27 25 25 25 25 24 25 24
2 2 3 0 1 0 3 5 1 4 7 6 8 6 11 16 19 20 22 22 27 29 25 23 20 19 20 22 23 25 29 33 35 37 35 35 35 36 36 35 33 30 28 27 28 28 27 27 26
2 3 1 4 1 1 3 6 3 6 6 2 8 11 12 12 18 24 27 29 28 26 27 23 18 18 17 18 20 23 25 27 32 34 34 32 33 33 34 34 35 35 32 30 30 30 30 29 28
Wind_Direction
330 3 331 297 270 219 53 76 112 113 100 66 52 42 93 50 18 101 149 136 132 120 46 12 102 92 87 79 76 71 67 52 49 53 47 47 44 44 44 35 32 29 31 32 24 29 29 31 26
347 10 304 267 244 88 24 130 73 71 97 94 64 356 47 81 62 123 134 141 135 114 155 262 105 96 66 68 70 65 58 54 49 45 49 47 48 47 43 37 38 40 33 33 29 29 31 33 32
343 330 288 237 335 36 93 87 98 101 96 87 116 54 43 80 101 119 173 142 153 138 210 230 103 55 49 53 59 60 54 48 46 54 51 49 52 46 38 38 46 41 37 31 31 25 32 31 29
319 266 259 236 134 44 80 95 115 124 100 51 103 94 89 96 114 183 142 134 144 119 240 186 120 76 51 44 59 64 46 38 37 39 38 51 55 54 41 42 42 38 39 35 32 31 31 32 34
298 273 260 241 93 95 67 114 150 103 104 117 341 100 100 135 150 156 137 147 137 158 260 146 122 107 65 56 60 49 34 35 43 40 35 41 39 40 37 39 41 40 40 40 38 41 41 40 40
284 241 276 359 87 84 92 117 91 71 107 94 152 110 119 183 164 152 147 153 159 147 215 233 145 79 55 40 21 19 30 35 38 39 37 36 33 35 38 40 40 39 40 42 42 43 46 46 43
287 300 296 19 107 141 119 127 134 104 114 96 67 99 145 160 177 163 153 159 166 172 178 262 98 64 57 360 7 11 22 33 35 36 37 41 42 41 42 41 39 40 40 39 39 44 50 53 49
317 281 302 22 133 89 111 120 46 331 70 118 137 79 158 175 178 166 167 172 179 183 175 182 244 20 2 346 14 6 15 31 38 36 33 33 41 33 43 38 39 40 40 39 37 37 40 40 42
292 278 88 62 29 92 126 150 131 168 126 121 112 69 150 178 176 172 177 185 192 186 190 203 203 197 181 283 331 345 30 20 46 48 42 42 34 11 25 31 38 39 41 44 42 40 42 42 41
300 354 35 26 30 62 141 258 142 170 180 155 142 127 171 181 180 184 185 192 201 197 191 207 209 218 208 221 296 329 342 4 19 23 29 49 22 16 21 30 36 36 35 38 37 38 38 38 35
14 23 87 51 43 1 128 232 163 204 231 204 190 178 187 188 185 192 193 200 210 217 210 214 214 222 226 231 276 296 305 321 347 7 10 24 24 9 10 10 16 21 25 30 35 36 36 36 29
190 67 8 76 71 316 264 305 189 223 268 136 109 203 195 192 195 194 197 198 207 215 223 220 226 222 227 239 262 283 291 292 284 324 325 332 355 350 356 6 11 17 20 28 33 33 33 35 28
22 105 98 128 159 258 302 264 252 270 221 216 184 194 198 199 202 199 201 202 209 220 229 226 225 228 228 235 248 249 264 271 268 282 275 292 295 316 340 353 357 5 14 19 28 31 28 29 26
57 170 145 175 201 245 262 277 177 252 207 205 195 196 202 205 202 202 201 204 208 217 238 235 230 225 229 236 245 249 248 258 261 264 269 268 277 293 313 320 341 351 3 8 21 21 17 24 20
207 257 178 191 211 236 280 247 230 223 188 199 203 200 204 208 207 208 208 207 212 215 229 241 239 231 232 236 246 248 256 256 259 260 263 266 270 276 284 295 312 334 343 355 6 11 9 12 8
237 207 194 134 168 174 144 290 193 180 181 198 208 211 209 213 210 211 214 209 214 213 219 237 238 240 234 241 246 254 253 254 256 258 260 261 262 265 272 277 289 315 321 337 350 354 357 356 353
214 310 57 153 187 144 203 307 126 167 185 208 212 212 213 211 214 213 212 216 211 214 221 232 238 239 244 241 247 249 252 253 253 254 258 260 261 263 265 275 282 294 304 316 329 335 338 341 344
343 351 345 325 148 201 244 249 248 222 198 209 216 215 214 212 214 215 213 219 218 219 217 232 243 244 241 246 247 252 252 254 254 255 256 260 263 263 264 267 269 278 285 292 308 318 325 332 338
318 311 296 358 91 319 254 265 268 264 195 205 215 226 216 218 220 222 216 217 222 220 222 223 239 247 244 243 247 249 255 258 256 255 259 258 263 265 266 265 267 272 272 278 293 299 313 323 327
294 287 329 58 117 237 277 286 277 247 203 208 206 218 230 214 213 217 218 221 225 229 230 230 235 243 248 249 253 255 257 259 262 261 257 256 259 261 265 264 263 265 270 274 278 288 299 308 312
312 24 9 320 318 253 286 272 131 128 216 281 238 216 220 222 210 214 220 227 233 236 237 241 242 243 247 250 250 251 251 250 254 259 262 261 260 262 262 263 262 262 264 268 270 277 286 289 298
307 20 339 318 344 297 16 299 127 150 145 199 225 224 219 226 219 219 223 229 241 251 248 247 252 250 249 250 249 249 252 253 258 261 266 267 264 263 264 262 260 260 262 265 266 269 275 280 283
349 354 299 303 296 296 132 48 162 151 95 97 139 198 218 222 223 221 227 238 250 258 259 254 254 256 254 250 253 254 253 256 258 256 257 261 262 260 260 263 262 260 259 260 264 264 269 274 277
309 261 224 239 243 267 71 55 291 70 84 126 136 146 194 217 219 223 231 232 248 263 266 264 259 258 257 254 254 256 257 258 257 256 257 259 262 263 261 262 263 261 259 259 260 261 261 267 271
241 284 39 314 309 175 90 336 254 128 142 100 100 149 185 207 206 211 214 230 239 250 262 267 267 265 259 257 256 257 260 259 259 259 258 257 259 261 266 263 263 263 261 260 260 261 262 263 264
329 341 78 196 344 305 154 238 237 132 146 186 225 205 191 187 189 187 194 216 253 260 263 267 269 270 264 261 260 260 260 260 260 259 257 259 261 264 266 266 263 262 259 258 258 259 262 263 265
13 32 0 312 17 330 234 236 90 104 129 69 278 216 221 213 212 212 225 251 278 296 298 286 279 277 272 268 265 263 261 260 260 259 258 258 261 262 263 263 264 262 260 260 260 260 262 263 264
297 303 313 264 12 302 308 312 248 211 107 127 189 236 246 239 238 240 251 279 286 299 304 293 287 282 280 276 271 266 264 264 264 263 260 258 259 260 259 260 261 263 261 259 260 262 262 261 264
168 186 226 151 51 190 325 278 1 49 73 39 359 326 266 256 252 256 267 273 288 297 299 292 281 281 281 280 278 272 266 265 265 264 262 260 260 258 257 257 259 260 261 261 259 262 264 262 262
325 314 335 112 176 292 150 274 123 91 88 280 277 284 288 275 261 265 268 281 293 288 292 296 288 287 288 283 276 275 270 264 263 263 264 262 259 261 259 258 257 257 259 260 260 261 262 263 263